Location: Lane
(33.5226°N, 79.8788°W)
Time: 23:08:45
(UTC+00:00)

Tiros 1 - Pass Details

Date: 08 October 2022
Orbit: 629 x 662 km, 48.4° (Epoch: 09 December)

Event Time Altitude Azimuth Distance (km) Brightness Sun altitude
Exits shadow 08:41:10 24° 104° (ESE) 1,332 9.2 -33.4°
Drops below altitude 10° 08:43:08 10° 113° (ESE) 2,037 10.2 -33.0°
Sets 08:45:29 0° 118° (ESE) 2,939 11.1 -32.5°
